Location: Beadle
(51.4667°N, 109.0000°W)
Time: 12:22:04
(UTC+00:00)

POLYITAN 1 - Visible Passes

Search period start: 28 June 2022 00:00
Search period end: 08 July 2022 00:00
Orbit: 585 x 606 km, 98.0° (Epoch: 27 June)

Date Brightness Start Highest point End Pass type
(mag) Time Alt. Az. Time Alt. Az. Time Alt. Az.
28 Jun ? 08:51:34 10° NNE 08:55:41 49° E 08:59:09 14° S visible
29 Jun ? 09:01:24 10° NNE 09:05:37 62° ESE 09:09:08 14° S visible
30 Jun ? 09:11:16 10° NNE 09:15:31 77° ESE 09:19:07 14° S visible
01 Jul ? 07:47:23 10° ENE 07:49:10 12° E 07:50:58 10° ESE visible
01 Jul ? 09:21:09 10° NNE 09:25:24 86° WNW 09:29:06 14° SSW visible
02 Jul ? 07:56:39 10° NE 07:59:11 15° E 08:01:43 10° SE visible
02 Jul ? 09:31:03 10° N 09:35:17 70° WNW 09:39:04 13° SSW visible
03 Jul ? 08:06:09 10° NE 08:09:10 19° E 08:12:11 10° SE visible
03 Jul ? 09:40:58 10° N 09:45:08 56° WNW 09:49:02 12° SSW visible
04 Jul ? 08:15:45 10° NE 08:19:09 23° E 08:22:20 11° SE visible
04 Jul ? 09:50:55 10° N 09:54:59 45° WNW 09:59:00 10° SW visible
05 Jul ? 08:25:26 10° NE 08:29:06 28° E 08:32:18 12° SSE visible
05 Jul ? 10:00:53 10° N 10:04:48 37° WNW 10:08:43 10° SW visible
06 Jul ? 08:35:09 10° NNE 08:39:03 34° E 08:42:15 14° SSE visible
06 Jul ? 10:10:52 10° N 10:14:37 31° WNW 10:18:22 10° SW visible
07 Jul ? 08:44:54 10° NNE 08:48:58 42° E 08:52:12 15° SSE visible
07 Jul ? 10:20:53 10° N 10:24:25 26° WNW 10:27:56 10° WSW visible
